SVA1049 OERK-OEJN

Flight info

Callsign SVA1049
Flight time N/A
Altitude 34000
Route DURMA G782 VEMEM
Aircraft A320/M-SDE3FGHIRWY/LB1

Departure

Time 2026-05-07 17:53
Airport King Khalid International Airport (OERK)

Arrival

Time N/A
Airport King Abdulaziz International Airport (OEJN)
Time Latitude Longitude Altitude Speed Heading
2026-05-07 17:24 24.95582 46.70689 2031 ft 0 kts 299°
2026-05-07 17:41 24.95580 46.70694 2030 ft 3 kts 300°
2026-05-07 17:41 24.95566 46.70719 2039 ft 3 kts 306°
2026-05-07 17:42 24.95549 46.70742 2037 ft 3 kts 316°
2026-05-07 17:42 24.95528 46.70759 2037 ft 3 kts 343°
2026-05-07 17:42 24.95509 46.70760 2034 ft 2 kts 57°
2026-05-07 17:42 24.95508 46.70758 2034 ft 0 kts 61°
2026-05-07 17:44 24.95520 46.70782 2041 ft 7 kts 61°
2026-05-07 17:44 24.95546 46.70833 2036 ft 8 kts 61°
2026-05-07 17:45 24.95551 46.70890 2031 ft 7 kts 127°
2026-05-07 17:45 24.95521 46.70911 2038 ft 0 kts 150°
2026-05-07 17:46 24.95506 46.70920 2038 ft 11 kts 150°
2026-05-07 17:46 24.95434 46.70965 2036 ft 11 kts 150°
2026-05-07 17:47 24.95372 46.71004 2033 ft 9 kts 149°
2026-05-07 17:47 24.95329 46.71046 2038 ft 7 kts 110°
2026-05-07 17:47 24.95349 46.71112 2041 ft 12 kts 59°
2026-05-07 17:47 24.95393 46.71196 2036 ft 13 kts 59°
2026-05-07 17:48 24.95413 46.71291 2033 ft 14 kts 122°
2026-05-07 17:48 24.95338 46.71343 2036 ft 12 kts 150°
2026-05-07 17:48 24.95273 46.71384 2035 ft 10 kts 150°
2026-05-07 17:48 24.95215 46.71421 2034 ft 11 kts 150°
2026-05-07 17:49 24.95137 46.71471 2036 ft 16 kts 150°
2026-05-07 17:49 24.95027 46.71544 2035 ft 21 kts 146°
2026-05-07 17:49 24.94891 46.71633 2035 ft 24 kts 152°
2026-05-07 17:49 24.94745 46.71718 2036 ft 24 kts 151°
2026-05-07 17:50 24.94601 46.71809 2037 ft 24 kts 150°
2026-05-07 17:50 24.94455 46.71901 2037 ft 25 kts 150°
2026-05-07 17:50 24.94314 46.71993 2038 ft 18 kts 141°
2026-05-07 17:50 24.94329 46.72113 2037 ft 17 kts 60°
2026-05-07 17:51 24.94391 46.72230 2036 ft 18 kts 59°
2026-05-07 17:51 24.94466 46.72238 2037 ft 8 kts 329°
2026-05-07 17:51 24.94521 46.72202 2040 ft 10 kts 330°
2026-05-07 17:51 24.94531 46.72197 2035 ft 0 kts 329°
2026-05-07 17:52 24.94553 46.72182 2034 ft 21 kts 330°
2026-05-07 17:52 24.94903 46.71963 2032 ft 91 kts 330°
2026-05-07 17:52 24.95623 46.71507 2033 ft 145 kts 330°
2026-05-07 17:52 24.96627 46.70866 2078 ft 183 kts 333°
2026-05-07 17:53 24.97683 46.70174 2838 ft 175 kts 334°
2026-05-07 17:53 24.98723 46.69481 3445 ft 179 kts 332°
2026-05-07 17:53 24.99775 46.68672 3791 ft 190 kts 325°
2026-05-07 17:53 25.00842 46.67756 4125 ft 202 kts 326°
2026-05-07 17:54 25.01996 46.66732 4275 ft 225 kts 322°
2026-05-07 17:54 25.02973 46.65262 4437 ft 254 kts 289°
2026-05-07 17:54 25.03069 46.63263 4682 ft 276 kts 252°
2026-05-07 17:54 25.02190 46.61331 5071 ft 288 kts 234°
2026-05-07 17:55 25.01034 46.59525 5832 ft 287 kts 230°
2026-05-07 17:55 24.99837 46.57810 6665 ft 285 kts 229°
2026-05-07 17:55 24.98621 46.56098 7468 ft 284 kts 230°
2026-05-07 17:55 24.97410 46.54374 8220 ft 285 kts 231°
2026-05-07 17:56 24.96209 46.52637 9006 ft 285 kts 231°
2026-05-07 17:56 24.95016 46.50886 9794 ft 286 kts 232°
2026-05-07 17:56 24.93812 46.49100 10229 ft 300 kts 232°
2026-05-07 17:56 24.92523 46.47178 10365 ft 323 kts 232°
2026-05-07 17:57 24.91146 46.45118 10484 ft 345 kts 232°
2026-05-07 17:57 24.90187 46.43682 10602 ft 356 kts 232°
2026-05-07 17:57 24.88221 46.40733 11249 ft 364 kts 232°
2026-05-07 17:57 24.86716 46.38479 11859 ft 367 kts 232°
2026-05-07 17:58 24.85198 46.36209 12456 ft 369 kts 233°
2026-05-07 17:58 24.83663 46.33915 13006 ft 374 kts 233°
2026-05-07 17:58 24.82111 46.31597 13589 ft 378 kts 233°
2026-05-07 17:58 24.80545 46.29261 14143 ft 381 kts 233°
2026-05-07 17:59 24.78967 46.26906 14673 ft 384 kts 233°
2026-05-07 17:59 24.77381 46.24538 15209 ft 387 kts 233°
2026-05-07 17:59 24.75780 46.22149 15736 ft 389 kts 233°
2026-05-07 17:59 24.74186 46.19778 16242 ft 392 kts 233°
2026-05-07 18:00 24.72557 46.17358 16758 ft 395 kts 232°
2026-05-07 18:00 24.70915 46.14923 17267 ft 398 kts 232°
2026-05-07 18:00 24.69258 46.12470 17756 ft 401 kts 232°
2026-05-07 18:00 24.67591 46.09997 18248 ft 404 kts 232°
2026-05-07 18:01 24.65914 46.07506 18674 ft 407 kts 232°
2026-05-07 18:01 24.64230 46.04998 19105 ft 409 kts 232°
2026-05-07 18:01 24.62538 46.02481 19554 ft 410 kts 232°
2026-05-07 18:01 24.60861 45.99992 19990 ft 411 kts 232°
2026-05-07 18:02 24.57439 45.94923 20873 ft 414 kts 233°
2026-05-07 18:02 24.55724 45.92380 21291 ft 416 kts 233°
2026-05-07 18:02 24.53993 45.89816 21708 ft 418 kts 233°
2026-05-07 18:03 24.52258 45.87251 22118 ft 419 kts 233°
2026-05-07 18:03 24.50519 45.84683 22505 ft 421 kts 233°
2026-05-07 18:03 24.48768 45.82103 22895 ft 422 kts 233°
2026-05-07 18:03 24.47006 45.79509 23264 ft 424 kts 233°
2026-05-07 18:04 24.45330 45.76904 23597 ft 425 kts 238°
2026-05-07 18:04 24.43964 45.74015 23879 ft 428 kts 243°
2026-05-07 18:04 24.42665 45.71070 24181 ft 429 kts 243°
2026-05-07 18:04 24.41360 45.68118 24489 ft 431 kts 243°
2026-05-07 18:05 24.40047 45.65159 24792 ft 432 kts 243°
2026-05-07 18:05 24.38727 45.62192 25084 ft 433 kts 243°
2026-05-07 18:05 24.37402 45.59216 25368 ft 435 kts 243°
2026-05-07 18:05 24.36074 45.56231 25660 ft 436 kts 243°
2026-05-07 18:06 24.34741 45.53238 25946 ft 437 kts 243°
2026-05-07 18:06 24.33419 45.50277 26223 ft 439 kts 243°
2026-05-07 18:06 24.32077 45.47275 26499 ft 440 kts 243°
2026-05-07 18:06 24.30727 45.44259 26775 ft 441 kts 243°
2026-05-07 18:07 24.29373 45.41232 27036 ft 443 kts 243°
2026-05-07 18:07 24.28017 45.38197 27331 ft 444 kts 243°
2026-05-07 18:07 24.26663 45.35168 27740 ft 441 kts 243°
2026-05-07 18:07 24.25317 45.32155 28180 ft 439 kts 243°
2026-05-07 18:08 24.23978 45.29157 28607 ft 437 kts 243°
2026-05-07 18:08 24.22641 45.26172 29015 ft 435 kts 243°
2026-05-07 18:08 24.21327 45.23238 29412 ft 434 kts 243°
2026-05-07 18:08 24.19997 45.20276 29817 ft 433 kts 243°
2026-05-07 18:09 24.18669 45.17324 30171 ft 432 kts 243°
2026-05-07 18:09 24.17342 45.14380 30498 ft 430 kts 243°
2026-05-07 18:09 24.16022 45.11451 30872 ft 428 kts 242°
2026-05-07 18:09 24.14713 45.08542 31293 ft 424 kts 242°
2026-05-07 18:10 24.13418 45.05665 31713 ft 420 kts 242°
2026-05-07 18:10 24.12129 45.02800 32143 ft 417 kts 242°
2026-05-07 18:10 24.10858 44.99973 32593 ft 413 kts 242°
2026-05-07 18:10 24.09595 44.97167 33049 ft 409 kts 242°
2026-05-07 18:11 24.08359 44.94424 33459 ft 406 kts 242°
2026-05-07 18:11 24.07515 44.92557 33735 ft 403 kts 241°
2026-05-07 18:11 24.05872 44.88927 34003 ft 402 kts 241°
2026-05-07 18:12 24.03383 44.83439 34031 ft 403 kts 241°
2026-05-07 18:12 24.00893 44.77943 34031 ft 403 kts 241°
2026-05-07 18:13 23.98420 44.72485 34031 ft 403 kts 241°
2026-05-07 18:13 23.95935 44.67012 34035 ft 402 kts 241°
2026-05-07 18:14 23.93450 44.61551 34034 ft 402 kts 241°
2026-05-07 18:14 23.91738 44.55699 34041 ft 407 kts 253°
2026-05-07 18:15 23.90474 44.49702 34032 ft 408 kts 252°
2026-05-07 18:15 23.89187 44.43669 34035 ft 408 kts 252°
2026-05-07 18:16 23.87895 44.37627 34039 ft 408 kts 252°
2026-05-07 18:16 23.86603 44.31583 34024 ft 409 kts 252°
2026-05-07 18:17 23.85306 44.25536 34029 ft 409 kts 252°
2026-05-07 18:17 23.84019 44.19525 34049 ft 409 kts 253°
2026-05-07 18:18 23.82718 44.13480 34039 ft 409 kts 252°
2026-05-07 18:18 23.81407 44.07432 34038 ft 409 kts 252°
2026-05-07 18:19 23.80096 44.01386 34026 ft 409 kts 253°
2026-05-07 18:19 23.78796 43.95379 34034 ft 409 kts 253°
2026-05-07 18:20 23.77489 43.89328 34043 ft 410 kts 253°
2026-05-07 18:20 23.76173 43.83278 34037 ft 410 kts 252°
2026-05-07 18:21 23.74849 43.77266 34038 ft 411 kts 253°
2026-05-07 18:21 23.73508 43.71205 34042 ft 412 kts 253°
2026-05-07 18:22 23.72170 43.65123 34038 ft 412 kts 253°
2026-05-07 18:22 23.70833 43.59032 34038 ft 413 kts 253°
2026-05-07 18:23 23.69483 43.52932 34033 ft 414 kts 252°
2026-05-07 18:23 23.68134 43.46865 34043 ft 414 kts 252°
2026-05-07 18:24 23.66781 43.40750 34064 ft 415 kts 252°
2026-05-07 18:24 23.65430 43.34636 34068 ft 415 kts 252°
2026-05-07 18:25 23.64064 43.28535 34065 ft 414 kts 252°
2026-05-07 18:25 23.62705 43.22472 34085 ft 414 kts 252°
2026-05-07 18:26 23.61348 43.16381 34078 ft 413 kts 252°
2026-05-07 18:26 23.59983 43.10308 34076 ft 412 kts 252°
2026-05-07 18:27 23.58613 43.04241 34074 ft 412 kts 252°
2026-05-07 18:27 23.57262 42.98217 34082 ft 411 kts 252°
2026-05-07 18:28 23.55906 42.92174 34087 ft 410 kts 252°
2026-05-07 18:28 23.54544 42.86152 34094 ft 409 kts 252°
2026-05-07 18:29 23.53178 42.80142 34088 ft 408 kts 252°
2026-05-07 18:29 23.51831 42.74184 34079 ft 408 kts 252°
2026-05-07 18:30 23.50473 42.68184 34073 ft 408 kts 252°
2026-05-07 18:30 23.49114 42.62188 34069 ft 408 kts 252°
2026-05-07 18:31 23.47751 42.56200 34079 ft 407 kts 252°
2026-05-07 18:31 23.46396 42.50271 34079 ft 406 kts 252°
2026-05-07 18:32 23.45038 42.44323 34070 ft 405 kts 252°
2026-05-07 18:32 23.43675 42.38378 34081 ft 404 kts 252°
2026-05-07 18:33 23.42314 42.32448 34065 ft 403 kts 252°
2026-05-07 18:33 23.40951 42.26524 34053 ft 403 kts 252°
2026-05-07 18:34 23.39594 42.20642 34053 ft 403 kts 252°
2026-05-07 18:34 23.38224 42.14725 34071 ft 402 kts 252°
2026-05-07 18:35 23.36865 42.08829 34063 ft 401 kts 252°
2026-05-07 18:35 23.35514 42.02991 34065 ft 400 kts 251°
2026-05-07 18:36 23.34148 41.97132 34075 ft 400 kts 251°
2026-05-07 18:36 23.32784 41.91271 34057 ft 399 kts 251°
2026-05-07 18:37 23.31426 41.85416 34058 ft 399 kts 251°
2026-05-07 18:37 23.30064 41.79568 34056 ft 398 kts 251°
2026-05-07 18:38 23.28689 41.73776 34071 ft 396 kts 248°
2026-05-07 18:38 23.26236 41.68503 34075 ft 390 kts 236°
2026-05-07 18:39 23.23304 41.63540 34074 ft 390 kts 236°
2026-05-07 18:39 23.20384 41.58583 34044 ft 390 kts 236°
2026-05-07 18:40 23.17473 41.53652 34064 ft 390 kts 236°
2026-05-07 18:40 23.14532 41.48690 34070 ft 390 kts 236°
2026-05-07 18:41 23.11594 41.43730 34060 ft 390 kts 236°
2026-05-07 18:41 23.08656 41.38773 34057 ft 390 kts 236°
2026-05-07 18:42 23.05734 41.33854 34080 ft 390 kts 236°
2026-05-07 18:42 23.02798 41.28905 34062 ft 390 kts 236°
2026-05-07 18:43 22.99860 41.23959 34059 ft 390 kts 236°
2026-05-07 18:43 22.96916 41.19022 34057 ft 390 kts 236°
2026-05-07 18:44 22.93967 41.14079 34058 ft 390 kts 236°
2026-05-07 18:44 22.91037 41.09168 34075 ft 390 kts 236°
2026-05-07 18:45 22.88087 41.04235 34059 ft 390 kts 236°
2026-05-07 18:45 22.85140 40.99297 34040 ft 390 kts 236°
2026-05-07 18:46 22.82201 40.94389 34048 ft 391 kts 236°
2026-05-07 18:46 22.79245 40.89439 34068 ft 391 kts 236°
2026-05-07 18:47 22.76286 40.84499 34070 ft 390 kts 235°
2026-05-07 18:47 22.73326 40.79579 34076 ft 389 kts 235°
2026-05-07 18:48 22.70366 40.74662 34055 ft 390 kts 236°
2026-05-07 18:48 22.67424 40.69774 34052 ft 390 kts 236°
2026-05-07 18:49 22.64457 40.64844 33809 ft 392 kts 236°
2026-05-07 18:49 22.62968 40.62368 33555 ft 393 kts 236°
2026-05-07 18:49 22.61476 40.59888 33294 ft 394 kts 236°
2026-05-07 18:49 22.59972 40.57397 33032 ft 396 kts 236°
2026-05-07 18:50 22.58461 40.54898 32787 ft 398 kts 236°
2026-05-07 18:50 22.56964 40.52423 32540 ft 399 kts 236°
2026-05-07 18:50 22.55440 40.49903 32281 ft 402 kts 236°
2026-05-07 18:50 22.53904 40.47362 32041 ft 405 kts 236°
2026-05-07 18:51 22.52362 40.44809 31801 ft 406 kts 236°
2026-05-07 18:51 22.50819 40.42253 31559 ft 407 kts 236°
2026-05-07 18:51 22.49267 40.39689 31327 ft 408 kts 236°
2026-05-07 18:51 22.47706 40.37114 31089 ft 410 kts 236°
2026-05-07 18:52 22.46140 40.34532 30856 ft 411 kts 236°
2026-05-07 18:52 22.44590 40.31972 30623 ft 414 kts 236°
2026-05-07 18:52 22.43009 40.29366 30387 ft 415 kts 236°
2026-05-07 18:52 22.41423 40.26754 30158 ft 417 kts 236°
2026-05-07 18:53 22.39831 40.24130 29903 ft 418 kts 237°
2026-05-07 18:53 22.38232 40.21497 29623 ft 420 kts 237°
2026-05-07 18:53 22.36628 40.18854 29340 ft 421 kts 237°
2026-05-07 18:53 22.35022 40.16207 28636 ft 423 kts 237°
2026-05-07 18:54 22.33398 40.13532 27484 ft 427 kts 237°
2026-05-07 18:54 22.31763 40.10841 26398 ft 431 kts 237°
2026-05-07 18:54 22.30132 40.08164 25339 ft 435 kts 236°
2026-05-07 18:54 22.28480 40.05457 24871 ft 425 kts 236°
2026-05-07 18:55 22.26889 40.02851 24731 ft 407 kts 236°
2026-05-07 18:55 22.25363 40.00352 24613 ft 391 kts 236°
2026-05-07 18:55 22.23898 39.97952 24501 ft 375 kts 236°
2026-05-07 18:55 22.22489 39.95641 24367 ft 361 kts 237°
2026-05-07 18:56 22.21136 39.93422 24233 ft 348 kts 237°
2026-05-07 18:56 22.19824 39.91273 23991 ft 339 kts 237°
2026-05-07 18:56 22.18552 39.89190 23763 ft 335 kts 237°
2026-05-07 18:56 22.17277 39.87099 23538 ft 334 kts 237°
2026-05-07 18:57 22.15999 39.85004 23259 ft 333 kts 237°
2026-05-07 18:57 22.14724 39.82918 22862 ft 332 kts 237°
2026-05-07 18:57 22.13453 39.80840 22381 ft 331 kts 236°
2026-05-07 18:57 22.12185 39.78769 21920 ft 331 kts 237°
2026-05-07 18:58 22.10918 39.76704 21464 ft 330 kts 237°
2026-05-07 18:58 22.09658 39.74648 20992 ft 329 kts 237°
2026-05-07 18:58 22.08404 39.72604 20608 ft 325 kts 237°
2026-05-07 18:58 22.07152 39.70560 20185 ft 324 kts 237°
2026-05-07 18:59 22.05915 39.68544 19809 ft 322 kts 237°
2026-05-07 18:59 22.04695 39.66560 19390 ft 321 kts 236°
2026-05-07 18:59 22.03467 39.64559 19003 ft 320 kts 236°
2026-05-07 18:59 22.02244 39.62565 18616 ft 318 kts 236°
2026-05-07 19:00 22.01024 39.60577 18242 ft 317 kts 236°
2026-05-07 19:00 21.99810 39.58598 17837 ft 316 kts 236°
2026-05-07 19:00 21.98603 39.56630 17446 ft 314 kts 237°
2026-05-07 19:00 21.97400 39.54672 17073 ft 312 kts 236°
2026-05-07 19:01 21.96204 39.52731 16706 ft 310 kts 236°
2026-05-07 19:01 21.95031 39.50827 16338 ft 309 kts 236°
2026-05-07 19:01 21.93942 39.48842 15969 ft 307 kts 244°
2026-05-07 19:01 21.93026 39.46778 15620 ft 305 kts 244°
2026-05-07 19:02 21.92108 39.44716 15222 ft 306 kts 244°
2026-05-07 19:02 21.91181 39.42641 14799 ft 308 kts 244°
2026-05-07 19:02 21.90255 39.40563 14377 ft 308 kts 244°
2026-05-07 19:02 21.89326 39.38477 13943 ft 309 kts 244°
2026-05-07 19:03 21.88396 39.36383 13514 ft 310 kts 244°
2026-05-07 19:03 21.87476 39.34314 13072 ft 311 kts 244°
2026-05-07 19:03 21.86539 39.32213 12620 ft 311 kts 244°
2026-05-07 19:03 21.85599 39.30113 12159 ft 312 kts 244°
2026-05-07 19:04 21.84658 39.28014 11721 ft 312 kts 244°
2026-05-07 19:04 21.83715 39.25904 11285 ft 312 kts 244°